Location: Unspecified
(0.0000°N, 0.0000°E)
Time: 17:58:05
(UTC+00:00)

Courier 1B Rocket - Pass Details

Date: 26 April 2024
Orbit: 920 x 1201 km, 28.2° (Epoch: 19 May)

Event Time Altitude Azimuth Distance (km) Brightness Sun altitude
Rises 20:22:30 0° 229° (SW) 3,772 8.4 -35.0°
Reaches altitude 10° 20:25:14 10° 224° (SW) 2,862 7.7 -35.6°
Enters shadow 20:27:52 24° 213° (SSW) 2,059 6.7 -36.3°
